Home > Weather > Kalamaria > Past weeks

Flag for Greece Past Weather in Kalamaria, Greece — Yesterday and Last 2 Weeks

Now
84 °F

Passing clouds.


Feels Like: 83 °F
Forecast: 67 / 89 °F
Wind: 9 mph from West

Location: Thessaloniki Airport

Current Time: Aug 28, 2016 at 3:22:18 PM

Latest Report: Aug 28, 2016 at 2:50 PM


Visibility: N/A

Pressure: 30.04 "Hg

Humidity: 37%

Dew Point: 55 °F

Location of KalamariaLocation

Past Weather in Kalamaria — Graph

°F

Kalamaria Temperature Yesterday

Maximum temperature yesterday: 86 °F (at 4:20 PM)
Minimum temperature yesterday: 68 °F (at 12:20 AM)
Average temperature yesterday: 77 °F

High & Low Weather Summary for the Past Weeks

 TemperatureHumidityPressure
High97 °F (Aug 22, 4:20 PM)83% (Aug 20, 5:50 AM)30.21 "Hg (Aug 20, 5:50 AM)
Low61 °F (Aug 15, 4:50 AM)20% (Aug 22, 4:20 PM)29.77 "Hg (Aug 18, 3:50 PM)
Average78 °F52%29.97 "Hg
* Reported Aug 13 1:20 PM — Aug 28 1:50 PM, Kalamaria, Weather by CustomWeather, © 2016

Note: Actual official high and low records may vary slightly from our data, if they occured in-between our weather recording intervals... More about our weather records

Advertising

Kalamaria Weather History for the Previous 24 Hours

Scroll right to see more
 ConditionsComfort  
Time TempWeatherWind HumidityBarometerVisibility
1:50 PM
Sun, Aug 28
82 °FPassing clouds.8 mph45%30.04 "HgN/A
1:20 PM82 °FPassing clouds.9 mph42%30.07 "HgN/A
12:50 PM82 °FPassing clouds.9 mph45%30.07 "HgN/A
12:20 PM81 °FPassing clouds.9 mph48%30.07 "HgN/A
11:50 AM79 °FPassing clouds.9 mph48%30.07 "HgN/A
11:20 AM79 °FSunny.7 mph54%30.07 "Hg10 mi
10:50 AM79 °FSunny.6 mph54%30.09 "Hg10 mi
10:20 AM77 °FSunny.6 mph61%30.09 "Hg10 mi
9:50 AM77 °FSunny.3 mph57%30.07 "Hg10 mi
9:20 AM77 °FSunny.3 mph57%30.07 "Hg10 mi
8:50 AM75 °FPassing clouds.2 mph61%30.07 "HgN/A
8:20 AM73 °FScattered clouds.2 mph61%30.07 "HgN/A
7:50 AM70 °FPassing clouds.2 mph60%30.07 "HgN/A
7:20 AM68 °FPassing clouds.3 mph56%30.07 "HgN/A
6:50 AM68 °FPassing clouds.3 mph53%30.07 "HgN/A
6:20 AM70 °FPassing clouds.3 mph50%30.07 "HgN/A
5:50 AM70 °FPassing clouds.3 mph50%30.07 "HgN/A
5:20 AM73 °FPassing clouds.3 mph44%30.04 "HgN/A
4:50 AM72 °FPassing clouds.6 mph44%30.04 "HgN/A
4:20 AM68 °FPassing clouds.7 mph49%30.04 "HgN/A
3:50 AM66 °FPassing clouds.7 mph52%30.04 "HgN/A
3:20 AM66 °FPassing clouds.8 mph52%30.07 "HgN/A
2:50 AM68 °FPassing clouds.7 mph49%30.07 "HgN/A
2:20 AM68 °FPassing clouds.6 mph53%30.07 "HgN/A
1:50 AM70 °FPassing clouds.5 mph50%30.07 "HgN/A
1:20 AM70 °FPassing clouds.6 mph46%30.07 "HgN/A
12:50 AM72 °FPassing clouds.6 mph47%30.07 "HgN/A
12:20 AM72 °FPassing clouds.6 mph47%30.07 "HgN/A
11:50 PM
Sat, Aug 27
70 °FPassing clouds.5 mph50%30.07 "HgN/A
11:20 PM72 °FPassing clouds.6 mph44%30.07 "HgN/A
10:50 PM72 °FPassing clouds.3 mph44%30.07 "HgN/A
10:20 PM73 °FPassing clouds.6 mph41%30.07 "HgN/A
9:50 PM73 °FClear.3 mph41%30.07 "Hg10 mi
9:20 PM73 °FPassing clouds.5 mph41%30.07 "HgN/A
8:50 PM75 °FScattered clouds.5 mph36%30.07 "HgN/A
8:20 PM77 °FScattered clouds.3 mph34%30.07 "HgN/A
7:50 PM79 °FScattered clouds.6 mph30%30.07 "HgN/A
7:20 PM82 °FScattered clouds.8 mph26%30.07 "HgN/A
6:50 PM84 °FPartly sunny.8 mph25%30.07 "HgN/A
6:20 PM84 °FPartly sunny.10 mph27%30.07 "HgN/A
5:50 PM84 °FPartly sunny.10 mph29%30.07 "HgN/A
5:20 PM84 °FPartly sunny.8 mph31%30.07 "HgN/A
4:50 PM82 °FScattered clouds.9 mph40%30.07 "HgN/A
4:20 PM86 °FScattered clouds.9 mph29%30.07 "HgN/A
3:50 PM84 °FScattered clouds.10 mph31%30.07 "HgN/A
3:20 PM84 °FScattered clouds.12 mph33%30.07 "HgN/A
Weather by CustomWeather, © 2016

See weather overviewHow to use our weather pages